DELTA 1 DEB, 7836

Orbit data source: Space-Track

DELTA 1 DEB, 7836 is space debris in SSO originally from a launch on Sun, 23 Jul 1972 UTC launched from the Air Force Western Test Range (AFWTR). Debris objects in space refer to the collection of defunct objects orbiting the Earth. Examples of debris include non-operational satellites, rocket bodies, and fragments generated from explosions, collisions, or faulty payload assembly.

Loading next visibility...
Identifier
7836, 1972-058G
Orbit
SSO
Country
Flag of USUS
Related business
Manufacturer
Unknown
Mission
Spacecraft
Bus & Motor
Unknown
Mass
Unknown
Launch date (UTC)
1972-07-23 (53 years ago)
Launch vehicle
Unknown
Launch site
Air Force Western Test Range (AFWTR)
Object type
Payload
Rocket body
Debris
Shape & HBR
Unknown shape, 0.1 m
Radar Cross Section
Medium (>0.1 m² and <1 m²)

Expand to show TLE details & history
Last TLE update: 17 hours ago

TLE from 17 hours ago
0 DELTA 1 DEB
1 07836U 72058G   25293.81398045  .00001320  00000-0  63130-3 0  9997
2 07836  97.9700 137.6587 0323167 248.0458 108.6073 13.96639497605494
Epoch: 2025-10-20T19:32Z
TLE epoch observation values (Epoch: 2025-10-20T19:32:07.910Z)
Latitude
-0.00007°
Longitude
175.11485°
Altitude
990.207 km
Speed
7.315 km/s
True Right ascension
09h 10m 38s
True Declination
0° 00' 00"
Sunlit
Object was in daylight at epoch
Visualization orbit readout
Latitude
Unknown
Longitude
Unknown
Altitude
Unknown
Speed
Unknown
Apparent Right ascension
Unknown
Apparent Declination
Unknown
Sunlit
N/A
Visualization observer readout
Local Sidereal Time
07:58:26
Azimuth
Unknown
Elevation
Unknown
Doppler factor
Unknown
Orbital elements
Apogee altitude
1,137.897 km
Perigee altitude
667.318 km
Semi-major axis
7,280.744 km
Eccentricity
0.03232
Inclination
97.97°
RAAN
137.6587°
Arg. of periapsis
248.0458°
True anomaly
112.07016°
Mean anomaly
108.6073°
Eccentric anomaly
110.34342°
Mean motion
3.49365 °/min
Orbital period
103.04 mins
BSTAR
0.0006313
Loading maneuver chart data...
Computing Atmospheric mass density...

Documentation

Showing up to 5 results
|